Lexington Weather

Lexington, Massachusetts, USA

72°F
8/7/2020 11:11am 
  • Lexington Conditions: Clear
  • Temperature: 72.1°F / 22.3°CWarmer 2.5°F than last hour.
  • Dew Point: 63.0°FIncreased 1.3°Fsince last hour.
  • Relative Humidity: 73%Decreased 3.0% since last hour.
  • Wind: Calm, 10-min avg: Calm, gust: 2 mph
  • Barometer: 30.14 in Steady
  • Visibility: 10 miles
  • Rain Today: 0.00 in
  •   

Regional Weather Roundup
for Boston / Norton, MA

        
000
ASUS41 KBOX 022204
RWRBOX

REGIONAL WEATHER ROUNDUP
NATIONAL WEATHER SERVICE BOSTON/NORTON MA
600 PM EDT SUN AUG 02 2020

NOTE:  "FAIR" INDICATES FEW OR NO CLOUDS BELOW 12,000 FEET WITH NO 
SIGNIFICANT WEATHER AND/OR OBSTRUCTIONS TO VISIBILITY.

MAZALL-022300-
EASTERN MASSACHUSETTS
  
CITY           SKY/WX    TMP DP  RH WIND       PRES   REMARKS
BOSTON         LGT RAIN  76  70  82 S12       29.93R                  
BEVERLY        LGT RAIN  74  69  85 SE8       29.92F                  
LAWRENCE       CLOUDY    77  73  87 VRB3      29.94S                  
BEDFORD        TSTM      76  32  20 S9        29.91S FOG              
BLUE HILL      NOT AVBL                                               
NORWOOD        CLOUDY    81  71  71 S9G22     29.92S                  
MARSHFIELD     PTSUNNY   82  72  69 S10G22    29.93F                  
PLYMOUTH       CLOUDY    79  71  76 S10G23    29.96S                  
TAUNTON        CLOUDY    80  71  74 S10       29.94S                  
NEW BEDFORD    CLOUDY    79  73  82 S16G23    29.95F                  
$$

MAZALL-022300-
CAPE COD AND THE ISLANDS
  
CITY           SKY/WX    TMP DP  RH WIND       PRES   REMARKS
FALMOUTH       PTSUNNY   77  72  83 S17G25    29.98S                  
HYANNIS        CLOUDY    78  71  79 S14G20    29.97S                  
CHATHAM        PTSUNNY   73  67  81 S9G22     30.01S                  
PROVINCETOWN   SUNNY     79  70  74 S14G23    29.97F                  
NANTUCKET      CLOUDY    74  69  85 SE17      30.00F                  
MARTHAS VNYRD  CLOUDY    76  71  85 S16G23    29.97F                  
$$
 
MAZALL-022300-
CENTRAL AND WESTERN MASSACHUSETTS
  
CITY           SKY/WX    TMP DP  RH WIND       PRES   REMARKS
WORCESTER      CLOUDY    74  72  93 S9        29.95S                  
FITCHBURG      CLOUDY    76  72  87 SE6       29.92F                  
ORANGE         CLOUDY    76  73  91 S6        29.91F                  
SPRINGFIELD    PTSUNNY   78  75  89 S7        29.86F                  
WESTFIELD      CLOUDY    78  76  93 S7        29.87S                  
NORTH ADAMS    MOSUNNY   82  72  71 E12       29.85F                  
PITTSFIELD     PTSUNNY   79  72  79 SE8       29.87F                  
$$
 
RIZALL-022300-
RHODE ISLAND
  
CITY           SKY/WX    TMP DP  RH WIND       PRES   REMARKS
PROVIDENCE     LGT RAIN  78  74  87 S15       29.94S                  
NEWPORT        CLOUDY    78  73  84 SE14G25   29.94F                  
BLOCK ISLAND   CLOUDY    78  75  90 S17G23    29.94F                  
SMITHFIELD     CLOUDY    76  74  93 S9        29.95S                  
WESTERLY       CLOUDY    77  72  84 SE12      29.94S                  
$$
 
CTZALL-022300-
CONNECTICUT
  
CITY           SKY/WX    TMP DP  RH WIND       PRES   REMARKS
BRADLEY INTL   CLOUDY    79  75  87 S14       29.87F                  
HARTFORD       CLOUDY    81  76  84 S8        29.86F                  
BRIDGEPORT     MOSUNNY   84  76  76 S12       29.86F HX  93           
DANBURY        PTSUNNY   83  76  79 SE9G17    29.86F HX  91           
GROTON         CLOUDY    77  74  90 SE13      29.91S                  
NEW HAVEN      CLOUDY    83  78  85 SE9       29.88F HX  93           
CHESTER        NOT AVBL                                               
MERIDEN        CLOUDY    81  75  82 S9        29.87F                  
WILLIMANTIC    CLOUDY    78  74  87 S10G17    29.91F                  
OXFORD         CLOUDY    79  77  94 SE13G18   29.90F                  
$$

MEZ002-015-021-024-NHZ003-005-008-011-012-014-VTZ005-008-022300-
NORTHERN NEW ENGLAND
  
CITY           SKY/WX    TMP DP  RH WIND       PRES   REMARKS
PORTLAND ME    PTSUNNY   77  65  66 S15G24    29.95S                  
BANGOR ME      CLOUDY    77  67  71 S16       29.96S                  
CONCORD NH     CLOUDY    79  67  66 S8        29.90F                  
MANCHESTER NH  LGT RAIN  80  70  71 S12G20    29.90S                  
NASHUA NH      CLOUDY    78  75  90 VRB6      29.92F                  
PORTSMOUTH NH  CLOUDY    77  63  62 SE16      29.91F                  
JAFFREY NH     CLOUDY    74  70  87 S7        29.94F                  
KEENE NH       CLOUDY    76  71  85 S3        29.90S                  
BURLINGTON VT  PTSUNNY   83  67  58 S14G22    29.75F                  
MT. WASHINGTON SHOWER    55  55 100 S32G45      N/A  VSB 0            
$$

NYZ052-076-022300-
EASTERN NEW YORK
  
CITY           SKY/WX    TMP DP  RH WIND       PRES   REMARKS
ALBANY         PTSUNNY   83  73  72 SE16G22   29.78F                  
NEW YORK CITY  MOSUNNY   90  74  59 S16       29.82F HX  99           
$$
 
ANZALL-022300-
MARINE OBSERVATIONS
  
STATION/POSITION TIME  TEMP    WIND        PRES    VSBY  WAVE
                       AIR SEA DIR/SP/G                  HT/PER
                 (UTC) (F)     (DEG/KT/KT) (MB)    (MI)  (FT/S)
BOSTON BUOY      2150   72 68  140/ 16/ 17 1012.4F         3/ 4
BUZZARDS BAY     2100          150/ 18/ 20 1015.3F
NANTUCKET SOUND  2140      76  160/ 19/ 23   N/A
MASS BAY-STELLWA 2104   74     180/ 19/ 21 1012.0S  1 7/8  4/ 4
ISLE OF SHOALS   2100   74     160/ 28/ 30 1012.7F
S OF BLOCK IS    2126      73                N/A           4/ 5
$$

......................KEY.........................
  SKY/WX - SKY CONDITION/PRESENT WEATHER
  TMP    - TEMPERATURE IN FAHRENHEIT
  DWPT   - DEWPOINT IN FAHRENHEIT
  RH     - RELATIVE HUMIDITY IN PERCENT
  WIND   - DIRECTION AND SPEED IN MPH
  PRES   - MEAN SEA LEVEL PRESSURE IN INCHES OF HG
  WCI    - WIND CHILL INDEX
  VSB    - VISIBILITY IN MILES
  HX     - HEAT INDEX
  TC     - TEMPERATURE IN CELSIUS
  VRB    - VARIABLE WIND DIRECTION
  N/A    - NOT AVAILABLE
  
      

Other recent Regional Weather Roundups

Fri Aug 7, 10:04am

Fri Aug 7, 9:04am

Fri Aug 7, 8:04am

Fri Aug 7, 7:04am

Fri Aug 7, 6:04am

Fri Aug 7, 5:04am

Fri Aug 7, 4:04am

Fri Aug 7, 3:04am

Fri Aug 7, 2:04am

Fri Aug 7, 1:05am

Fri Aug 7, 12:04am

Thu Aug 6, 11:04pm

Thu Aug 6, 10:04pm

Thu Aug 6, 9:04pm

Thu Aug 6, 8:04pm

Thu Aug 6, 7:04pm

Thu Aug 6, 6:04pm

Thu Aug 6, 5:04pm

Thu Aug 6, 4:05pm

Thu Aug 6, 3:04pm

Thu Aug 6, 2:05pm

Thu Aug 6, 1:04pm

Thu Aug 6, 12:04pm

Thu Aug 6, 11:04am

Thu Aug 6, 10:04am

Thu Aug 6, 9:04am

Thu Aug 6, 8:04am

Thu Aug 6, 7:04am

Thu Aug 6, 6:04am

Thu Aug 6, 5:04am

Thu Aug 6, 4:04am

Thu Aug 6, 3:04am

Thu Aug 6, 2:05am

Thu Aug 6, 1:04am

Thu Aug 6, 12:04am

Wed Aug 5, 11:04pm

Wed Aug 5, 10:04pm

Wed Aug 5, 9:04pm

Wed Aug 5, 8:05pm

Wed Aug 5, 7:04pm

Wed Aug 5, 6:04pm

Wed Aug 5, 5:04pm

Wed Aug 5, 4:05pm

Wed Aug 5, 3:04pm

Wed Aug 5, 2:04pm

Wed Aug 5, 1:04pm

Wed Aug 5, 12:04pm

Wed Aug 5, 11:04am

Wed Aug 5, 10:04am

Wed Aug 5, 9:04am

Wed Aug 5, 8:04am

Wed Aug 5, 7:04am

Wed Aug 5, 6:04am

Wed Aug 5, 5:04am

Wed Aug 5, 4:04am

Wed Aug 5, 3:04am

Wed Aug 5, 2:05am

Wed Aug 5, 1:04am

Wed Aug 5, 12:05am

Tue Aug 4, 11:05pm

Tue Aug 4, 10:05pm

Tue Aug 4, 9:04pm

Tue Aug 4, 8:04pm

Tue Aug 4, 7:05pm

Tue Aug 4, 6:05pm

Tue Aug 4, 5:05pm

Tue Aug 4, 4:05pm

Tue Aug 4, 3:04pm

Tue Aug 4, 2:05pm

Tue Aug 4, 1:04pm

Tue Aug 4, 12:05pm

Tue Aug 4, 11:04am

Tue Aug 4, 10:04am

Tue Aug 4, 9:04am

Tue Aug 4, 8:04am

Tue Aug 4, 7:04am

Tue Aug 4, 6:04am

Tue Aug 4, 5:04am

Tue Aug 4, 4:04am

Tue Aug 4, 3:04am

Tue Aug 4, 2:04am

Tue Aug 4, 1:04am

Tue Aug 4, 12:04am

Mon Aug 3, 11:04pm

Mon Aug 3, 10:04pm

Mon Aug 3, 9:04pm

Mon Aug 3, 8:05pm

Mon Aug 3, 7:04pm

Mon Aug 3, 6:04pm

Mon Aug 3, 5:04pm

Mon Aug 3, 4:05pm

Mon Aug 3, 3:04pm

Mon Aug 3, 2:04pm

Mon Aug 3, 1:04pm

Mon Aug 3, 12:05pm

Mon Aug 3, 11:04am

Mon Aug 3, 10:04am

Mon Aug 3, 9:05am

Mon Aug 3, 8:04am

Mon Aug 3, 7:04am

Mon Aug 3, 6:04am

Mon Aug 3, 5:04am

Mon Aug 3, 4:04am

Mon Aug 3, 3:04am

Mon Aug 3, 2:04am

Mon Aug 3, 1:04am

Mon Aug 3, 12:05am

Sun Aug 2, 11:04pm

Sun Aug 2, 10:04pm

Sun Aug 2, 9:04pm

Sun Aug 2, 8:04pm

Sun Aug 2, 7:04pm

Sun Aug 2, 5:04pm

Sun Aug 2, 4:05pm

Sun Aug 2, 3:04pm

Sun Aug 2, 2:05pm

Sun Aug 2, 1:04pm

Sun Aug 2, 12:04pm

Sun Aug 2, 11:04am

Sun Aug 2, 10:04am

Sun Aug 2, 9:05am

Sun Aug 2, 8:05am

Sun Aug 2, 7:04am

Sun Aug 2, 6:04am

Sun Aug 2, 5:04am

Sun Aug 2, 4:05am

Sun Aug 2, 3:04am

Sun Aug 2, 2:04am

Sun Aug 2, 1:04am

Sun Aug 2, 12:05am

Sat Aug 1, 11:04pm

Sat Aug 1, 10:04pm

Sat Aug 1, 9:04pm

Sat Aug 1, 8:05pm

Sat Aug 1, 7:04pm

Sat Aug 1, 6:04pm

Sat Aug 1, 5:05pm

Sat Aug 1, 4:05pm

Sat Aug 1, 3:04pm

Sat Aug 1, 2:04pm

Sat Aug 1, 1:04pm

Sat Aug 1, 12:04pm

Sat Aug 1, 11:05am

Sat Aug 1, 10:05am

Sat Aug 1, 9:04am

Sat Aug 1, 8:04am

Sat Aug 1, 7:04am

Sat Aug 1, 6:04am

Sat Aug 1, 5:04am

Sat Aug 1, 4:05am

Sat Aug 1, 3:04am

Sat Aug 1, 2:04am

Sat Aug 1, 1:04am

Sat Aug 1, 12:05am

Fri Jul 31, 11:05pm

Fri Jul 31, 10:04pm

Fri Jul 31, 9:04pm

Fri Jul 31, 8:05pm

Fri Jul 31, 7:05pm

Fri Jul 31, 6:04pm

Fri Jul 31, 5:04pm

Fri Jul 31, 4:05pm

Fri Jul 31, 3:04pm

Fri Jul 31, 2:05pm

Fri Jul 31, 1:04pm

Fri Jul 31, 12:04pm

Fri Jul 31, 11:04am

Meta data:

ID: 09137d9e-29c8-4f50-a7e9-57528f5b0911
Link: https://api.weather.gov/products/09137d9e-29c8-4f50-a7e9-57528f5b0911